Regional Weather Roundup
Issued by NWS

Home | Current Version | Previous Version | Graphics & Text | Print | Product List | Glossary On
Versions: 1 2 3 4 5 6 7 8 9 10 11 12 13 14 15 16 17 18 19 20 21 22 23 24 25 26 27 28 29 30 31 32 33 34 35 36 37 38 39 40 41 42 43 44 45 46 47 48 49 50
000
ASUS43 KFSD 241902
RWRSD

WEATHER ROUNDUP FOR SOUTH DAKOTA
NATIONAL WEATHER SERVICE SIOUX FALLS SD
100 PM CST WED DEC 24 2014

NOTE: "FAIR" INDICATES FEW OR NO CLOUDS BELOW 12,000 FEET WITH NO
SIGNIFICANT WEATHER AND/OR OBSTRUCTIONS TO VISIBILITY.


SDZ001>005-009-010-012>017-242000-
NORTHWEST AND NORTH CENTRAL SOUTH DAKOTA

CITY           SKY/WX    TMP DP  RH WIND       PRES   REMARKS
BUFFALO          N/A     36  25  64 SW5       29.48F
FAITH            N/A     28  19  69 S10       29.59F WCI  19
MOBRIDGE       PTSUNNY   27  21  78 S16       29.57F WCI  15
$$

SDZ012>016-024>037-041>051-057-063-072>074-242000-
SOUTHWEST AND SOUTH CENTRAL SOUTH DAKOTA

CITY           SKY/WX    TMP DP  RH WIND       PRES   REMARKS
RAPID CTY ARPT CLOUDY    32  22  66 SE5       29.61F WCI  27
PIERRE         MOSUNNY   25  19  78 SE8       29.66F WCI  16
CUSTER         PTSUNNY   40  18  41 W10       29.61F
ELLSWORTH AFB  CLOUDY    38  25  59 SW5       29.59F
PHILIP         MOSUNNY   32  20  61 W8        29.63F WCI  25
PINE RIDGE     PTSUNNY   37  19  48 W9        29.66F
WINNER         FAIR      30  18  60 S12       29.68F WCI  20
$$

SDZ004>011-016>023-039-040-242000-
NORTHEAST SOUTH DAKOTA

CITY           SKY/WX    TMP DP  RH WIND       PRES   REMARKS
ABERDEEN       CLOUDY    28  25  88 SW13      29.70F WCI  17
WATERTOWN      FOG       25  24  96 SW8       29.69F VSB 1/2 WCI  16
SISSETON         N/A     26  24  92 SW6       29.70F WCI  19
$$

SDZ017-020-022-023-036>040-048>070-242000-
SOUTHEAST SOUTH DAKOTA

CITY           SKY/WX    TMP DP  RH WIND       PRES   REMARKS
SIOUX FALLS    FRZ DRZL  25  24  96 NW8       29.76F FOG     WCI  16
HURON          CLOUDY    26  23  88 SW7       29.73F WCI  18
CHAMBERLAIN    SUNNY     26  23  85 S5        29.71F WCI  21
MITCHELL       CLOUDY    27  24  89 SW3       29.76F
YANKTON        CLOUDY    27  23  86 W6        29.80F WCI  20
$$

ABBREVIATIONS USED IN REMARKS
   TC - TEMPERATURE IN CELSIUS
  WCI - WIND CHILL INDEX
   HX - HEAT INDEX
  VSB - VISIBILITY




USA.gov is the U.S. government's official web portal to all federal, state and local government web resources and services.